Theta_e
342 339 338 339 336 334 335 338 339 340 340 340 340 340 339 338 331 322 323 327 328 327 329 330 330 331 330 330 327 325 324 325 325 326 327 328 329 330 332 332 333 333 333 333 333 334 335 332 328 329 330 328 329 330 329 328 328 329 330 329 330 330 330 330 329 328 328 329 331 333 333 333 332 331 330 331 332 335 336 335 335 336 337 337 338
342 340 339 338 336 334 334 338 340 341 341 341 340 340 339 337 331 322 322 326 327 327 329 330 330 330 330 330 328 328 326 324 325 327 326 326 330 331 332 332 333 333 332 332 333 334 333 330 327 328 328 326 327 327 327 327 327 328 328 328 328 328 329 329 329 328 328 327 328 330 331 332 331 331 330 329 328 329 333 334 333 334 335 336 336
342 341 339 338 337 335 335 338 340 341 341 341 340 340 338 337 333 325 322 326 326 326 329 329 328 328 329 328 327 328 327 325 325 327 326 326 331 332 332 332 332 331 331 332 333 333 330 327 324 325 325 327 327 326 327 326 326 327 327 327 327 327 327 327 327 327 327 327 326 328 329 330 330 330 330 329 328 326 327 330 331 332 333 334 335
342 341 339 339 337 336 336 338 339 340 340 340 339 339 338 337 335 328 324 326 327 325 328 330 328 328 330 328 325 326 328 325 323 326 326 327 331 331 331 331 330 330 330 331 332 332 329 325 323 324 325 326 327 326 326 325 325 327 327 327 327 327 327 327 326 326 326 326 325 326 326 328 329 329 330 329 329 328 326 326 327 327 328 329 331
343 340 338 339 338 337 336 337 338 339 340 339 339 339 338 338 337 332 326 327 327 326 328 330 329 329 330 327 323 323 327 326 322 326 329 329 331 330 330 330 330 330 331 331 332 330 327 325 324 325 326 325 325 326 324 324 326 326 327 326 327 327 327 327 326 326 326 325 325 325 326 327 327 328 329 329 328 328 328 327 327 327 326 326 327
342 339 338 338 338 337 336 337 337 338 339 339 339 339 339 338 338 335 330 328 328 328 329 330 331 330 331 327 320 320 324 325 323 327 331 330 330 330 330 330 329 330 332 333 333 329 327 326 325 324 326 326 324 325 325 325 326 326 325 325 325 326 326 325 325 326 326 326 325 326 326 327 327 327 328 328 327 327 328 328 328 327 327 327 327
342 341 340 339 338 336 336 337 337 338 339 339 339 339 339 338 338 337 332 330 330 329 329 330 330 330 331 326 320 319 320 321 322 327 331 330 330 329 329 329 329 329 330 331 331 330 330 328 324 324 325 325 324 323 325 326 326 326 326 325 325 325 325 325 326 328 328 327 327 327 327 327 327 327 327 327 326 326 327 327 327 326 326 327 327
341 342 342 340 338 335 335 337 337 337 338 338 338 338 338 338 338 337 334 331 331 331 330 330 330 329 328 324 319 319 318 318 322 327 329 330 329 328 329 329 329 330 329 329 330 331 331 327 323 323 325 325 323 322 323 325 325 325 325 325 326 326 327 327 327 328 328 328 328 328 328 327 327 328 328 327 327 326 327 327 327 326 326 326 326
342 342 342 339 337 335 334 335 336 336 337 338 338 338 338 338 338 337 335 332 331 331 330 330 330 329 326 322 319 318 317 316 321 327 328 329 329 328 329 329 329 332 331 331 332 330 328 325 323 323 324 324 324 322 322 325 324 325 325 325 326 326 327 327 327 328 328 329 329 329 329 329 329 329 329 329 328 327 327 327 326 326 326 326 326
342 341 341 338 336 336 333 334 336 337 337 337 338 338 338 338 337 337 335 333 332 332 331 330 330 330 326 322 320 318 316 314 317 325 328 328 329 328 329 329 330 332 332 331 331 329 327 325 323 323 323 323 324 323 322 324 324 324 325 325 325 325 325 326 327 327 327 328 329 330 330 329 330 330 329 329 328 328 328 327 327 327 327 327 327
341 341 341 338 336 336 334 334 335 336 336 337 338 338 338 337 337 337 336 334 332 332 331 330 331 330 326 322 320 318 317 314 314 322 327 328 328 328 328 329 331 332 331 330 329 328 326 323 321 321 322 322 322 323 323 324 324 324 323 324 324 324 324 324 325 326 326 327 329 329 329 329 330 330 329 329 328 328 327 327 328 327 328 327 327
341 341 341 338 336 336 336 335 335 334 334 336 337 337 336 336 337 337 336 334 333 333 331 331 331 329 326 323 321 319 317 314 314 320 326 328 328 327 326 328 330 331 330 329 328 326 323 321 320 321 322 320 319 321 322 322 323 323 322 322 322 322 322 323 323 324 325 326 327 328 329 329 330 330 329 328 327 328 327 327 328 327 327 327 327
341 341 341 338 337 337 336 335 335 335 334 335 335 336 335 336 336 336 336 335 334 333 332 332 331 329 327 324 322 319 318 315 316 321 325 327 327 327 327 327 328 328 328 327 326 325 322 321 322 322 321 316 317 320 320 320 321 322 322 322 321 321 321 321 321 321 323 324 325 326 327 328 329 329 328 328 327 327 327 327 327 327 326 326 326
341 341 341 339 337 337 336 336 336 336 336 335 335 335 334 335 335 336 336 335 334 333 333 332 330 329 327 325 323 320 318 315 315 319 323 326 327 326 326 326 326 326 326 325 324 323 322 322 322 320 317 314 317 319 319 320 321 323 323 322 322 322 321 321 321 321 321 322 323 324 326 327 328 328 326 326 326 326 326 326 325 325 325 325 324
341 341 341 339 338 337 337 337 337 338 338 337 335 334 333 333 334 336 336 336 335 334 334 333 331 329 328 326 324 321 319 315 312 313 319 324 326 325 324 325 325 325 324 323 322 322 320 318 315 313 311 313 317 318 320 322 323 323 322 322 322 321 321 322 322 322 322 322 322 322 324 325 326 326 324 324 324 324 324 324 324 324 323 323 322
341 341 341 340 339 338 338 337 337 338 339 338 336 334 333 332 333 335 335 336 335 334 334 333 331 329 328 327 325 322 320 317 313 310 314 320 324 324 324 324 324 324 321 318 319 318 312 308 304 305 309 313 316 320 322 323 323 323 323 322 322 322 322 322 323 323 324 324 324 323 322 323 324 324 324 324 324 324 323 323 323 323 322 320 319
342 341 341 341 340 339 338 338 337 338 338 338 337 334 333 332 332 334 335 335 335 334 334 333 331 329 329 328 326 324 321 319 316 311 311 316 322 323 323 322 322 320 314 311 311 307 303 300 299 303 309 314 318 322 322 322 323 323 323 323 323 323 323 323 323 323 324 323 324 324 323 323 323 323 323 324 323 322 323 322 322 321 320 319 318
341 340 341 341 340 339 339 339 338 338 338 338 337 335 333 331 331 333 335 335 335 334 334 333 332 330 329 328 327 324 323 321 317 312 309 312 317 319 319 318 316 312 307 305 303 300 299 299 301 305 309 316 321 322 322 322 322 323 323 323 323 323 322 323 323 323 323 323 324 324 324 324 324 324 323 322 322 321 322 322 321 321 320 320 319
339 339 339 339 339 340 339 339 338 338 338 338 337 336 334 332 330 331 334 335 335 334 334 333 332 331 329 329 327 325 323 322 318 314 310 309 311 312 312 311 309 305 302 301 299 299 300 300 303 306 310 317 321 320 320 320 321 322 322 322 322 322 322 322 323 323 323 323 323 323 324 325 324 324 323 323 323 322 322 322 321 320 319 320 319
338 337 337 338 339 339 339 338 338 339 338 339 338 337 336 333 331 331 333 335 335 334 334 333 332 331 330 329 328 326 324 322 319 315 312 309 307 307 306 306 304 301 300 299 299 300 300 302 305 307 310 315 318 318 318 318 318 319 320 321 321 322 322 322 322 322 322 323 322 322 323 323 323 323 323 322 322 322 321 320 320 319 318 318 317
336 335 336 337 338 338 338 337 338 339 339 339 338 338 337 335 332 331 333 334 335 335 334 334 333 331 330 330 328 327 325 323 321 316 312 310 307 305 303 301 300 300 300 301 301 301 303 305 308 311 312 314 315 317 317 317 317 318 319 320 320 320 320 321 321 321 321 322 322 322 322 321 321 322 322 321 321 321 319 318 318 318 317 317 316
335 334 335 335 336 337 337 337 337 338 338 339 339 338 338 336 334 331 332 334 334 335 334 333 333 331 330 330 328 327 325 324 322 317 313 310 307 304 302 301 302 303 304 304 304 303 305 307 311 313 314 314 315 316 316 316 317 318 318 319 318 318 318 319 319 319 320 320 321 321 321 321 320 320 321 321 320 319 318 317 317 317 317 316 315
334 334 333 333 334 335 336 336 335 336 337 337 338 339 338 337 336 332 331 333 334 334 334 334 333 332 331 330 328 327 326 325 324 320 315 311 308 306 306 306 307 308 309 309 308 307 307 309 311 312 314 314 314 314 314 315 317 317 317 317 317 316 317 317 316 317 317 318 319 319 320 320 319 318 319 318 317 316 316 314 314 315 315 315 314
334 333 332 331 333 333 334 335 334 335 335 335 336 337 338 337 337 335 332 332 333 334 334 333 333 332 331 330 329 328 327 325 325 322 317 313 310 310 311 312 312 313 313 313 311 310 310 311 312 312 313 314 313 312 312 313 315 317 316 316 316 315 315 315 315 315 315 315 316 317 318 319 318 317 317 316 315 315 315 314 312 312 313 313 313
333 332 331 330 331 332 333 333 334 333 333 335 335 335 338 337 337 336 334 333 332 333 334 333 333 332 332 331 330 328 327 326 325 323 319 315 313 314 314 315 315 315 314 314 313 312 312 312 313 313 313 314 313 312 310 311 313 315 315 315 315 315 314 314 314 313 313 313 314 314 315 316 316 316 316 316 316 315 314 314 313 312 312 312 312
332 331 330 329 329 331 333 332 333 333 332 334 334 335 337 338 337 336 336 335 333 333 333 333 333 333 332 331 331 329 328 326 325 324 321 317 315 316 316 316 316 315 315 315 313 313 313 313 313 313 313 313 313 312 311 310 312 313 314 314 314 314 313 313 313 312 312 312 312 312 313 314 314 314 314 314 314 313 313 313 312 312 311 311 310
332 330 329 328 329 331 332 331 332 332 333 334 333 334 335 336 337 337 337 336 335 334 334 334 333 333 332 332 331 330 329 326 325 324 323 320 318 317 317 317 317 317 317 316 313 314 315 313 312 311 311 312 312 311 311 310 311 311 311 311 311 311 311 310 310 310 310 309 309 310 311 312 312 312 313 313 313 312 312 311 312 311 310 310 310
331 330 329 328 328 329 330 331 331 331 332 333 333 334 333 333 334 336 336 336 335 335 334 334 334 333 333 332 331 330 329 326 325 324 323 322 319 318 317 318 318 318 318 316 315 314 313 311 310 309 309 309 309 309 308 307 307 307 306 304 304 304 304 304 305 305 305 306 306 308 308 309 310 310 310 311 311 311 311 311 311 310 309 309 309
330 330 330 329 327 327 328 330 331 330 330 331 332 333 333 333 332 333 336 336 335 336 335 335 335 334 333 333 332 330 329 327 325 324 323 321 320 319 318 319 319 319 319 317 316 314 310 307 306 306 305 304 303 303 301 300 300 299 298 296 295 296 296 297 298 300 301 302 304 305 306 307 307 308 308 309 309 309 309 309 309 308 308 308 307
330 330 330 328 327 327 327 328 329 328 328 329 330 331 333 333 332 332 335 337 336 335 336 335 335 334 333 333 333 330 329 327 325 324 322 320 321 320 319 320 320 320 319 317 316 313 308 304 303 302 302 300 298 296 295 295 294 294 293 293 293 293 292 292 293 294 297 298 300 301 303 305 306 306 306 306 307 307 307 307 307 307 307 307 306
329 329 329 327 327 327 326 326 327 326 326 326 327 328 331 332 332 332 333 335 336 335 335 335 334 334 334 333 333 331 330 328 326 324 322 321 321 321 320 320 320 320 319 317 315 310 305 301 300 299 298 296 294 293 293 293 292 292 292 292 292 292 292 291 290 290 290 292 295 296 298 301 303 304 304 305 305 305 305 305 305 305 305 305 305
327 328 328 327 326 325 324 324 325 325 325 324 325 326 328 330 331 331 329 331 334 336 335 335 334 333 333 333 333 333 331 329 327 325 323 322 322 322 321 320 320 319 318 317 313 307 304 300 297 296 296 294 293 293 292 292 292 292 292 292 292 292 291 291 290 289 288 288 289 291 293 294 296 298 300 301 302 301 302 303 303 303 303 304 304
325 326 326 325 324 323 322 322 323 322 322 323 323 324 326 328 329 330 329 328 331 334 335 334 334 333 332 332 332 333 332 330 328 326 325 323 323 322 321 320 320 319 318 316 312 308 305 300 296 294 294 293 293 292 292 292 292 292 291 291 291 291 291 290 290 289 289 288 288 289 289 290 290 291 293 294 295 296 298 300 302 302 302 302 302
324 324 323 322 321 321 321 321 321 321 321 320 320 322 325 327 328 329 329 327 328 330 333 333 333 333 332 331 332 332 331 330 328 327 326 325 323 322 322 321 319 319 317 316 314 308 303 298 294 293 293 293 293 292 292 292 291 291 291 290 290 290 290 290 290 289 289 289 288 288 288 288 288 289 289 289 289 290 293 296 299 300 301 301 301
323 322 321 321 320 320 320 320 320 319 319 318 318 322 325 326 327 327 327 326 325 326 329 332 332 332 331 330 330 331 330 329 329 328 328 326 324 322 322 321 319 318 316 315 314 305 299 297 294 293 293 293 293 292 291 291 291 290 290 290 290 289 289 289 289 289 289 289 289 288 288 288 288 288 288 288 288 287 288 290 293 296 298 299 300
322 321 320 320 320 319 319 319 319 317 316 317 318 322 325 325 325 325 324 324 324 324 326 328 330 330 330 329 328 329 329 329 329 329 328 325 324 323 322 321 319 317 316 315 311 302 297 295 293 293 293 293 292 292 291 291 290 290 289 289 289 289 289 288 288 288 288 289 289 288 288 288 288 288 288 288 287 287 287 287 288 290 292 295 297
321 320 319 319 319 319 318 318 316 315 314 315 316 321 324 323 324 323 321 321 322 323 323 325 327 327 327 327 327 328 328 329 328 328 327 325 324 323 322 320 318 316 315 313 308 301 298 295 293 294 294 293 293 291 291 290 290 290 289 289 289 288 288 288 288 288 288 288 288 288 288 288 288 288 288 287 287 287 287 287 287 287 287 289 292
320 319 318 319 318 318 317 316 314 314 315 314 314 318 321 321 322 320 319 319 320 321 321 322 324 325 325 325 326 326 326 327 326 326 326 324 323 322 321 318 316 316 314 311 306 301 298 296 294 294 294 293 292 291 291 290 290 289 289 289 288 288 288 288 287 287 288 288 288 288 288 288 288 288 287 287 287 287 287 287 287 287 287 286 287
319 318 318 318 317 317 316 314 314 315 316 314 312 316 319 319 319 318 318 319 320 321 322 322 323 323 323 323 324 324 325 324 324 325 325 324 323 321 319 317 315 314 312 308 303 300 297 295 294 294 294 293 292 291 291 290 289 289 289 289 288 288 288 287 287 287 287 287 288 287 287 287 287 287 287 287 287 287 287 287 287 287 286 286 285
317 317 317 317 316 316 315 313 314 315 315 313 311 314 318 317 317 317 318 319 320 321 321 321 322 323 323 323 323 323 323 323 324 325 325 323 321 319 317 315 313 312 310 305 301 298 296 295 295 294 293 293 292 291 290 290 289 289 289 288 288 288 287 287 287 287 287 287 287 287 286 287 286 287 287 287 287 287 287 287 286 286 286 286 286
316 316 316 316 315 315 314 313 313 314 314 312 312 314 317 316 316 317 318 319 320 320 320 320 321 322 322 322 323 322 322 322 324 324 323 321 319 318 316 313 312 313 311 306 301 299 297 296 295 294 294 292 291 291 290 290 289 289 289 288 288 288 288 288 287 287 287 287 286 286 286 286 286 286 286 286 287 286 286 286 286 286 286 286 285
315 316 316 315 315 314 314 313 312 312 313 312 313 315 316 316 316 317 318 319 319 319 319 319 320 321 321 321 322 321 320 321 322 322 322 320 318 316 315 314 314 314 311 305 301 299 297 296 295 294 294 293 291 290 290 291 289 288 289 289 289 288 287 287 287 287 287 287 286 286 287 286 286 286 286 286 286 286 286 286 286 286 285 285 285
315 315 316 315 315 314 313 313 312 311 311 311 313 315 316 316 317 317 317 318 318 318 318 318 319 320 320 320 320 320 319 319 320 320 320 319 318 316 315 315 314 313 310 305 301 299 297 296 296 295 293 292 291 290 291 292 290 289 289 290 290 289 289 288 287 287 286 286 286 286 286 286 286 286 286 286 286 286 286 285 285 285 285 284 285
315 315 315 315 314 314 312 312 311 310 310 311 313 315 315 315 316 316 317 318 318 318 317 318 318 318 319 319 318 318 318 317 317 318 318 318 317 316 315 314 314 313 311 306 301 299 298 297 296 296 294 292 291 290 293 293 290 291 292 291 291 291 293 290 287 287 286 286 286 286 286 286 286 285 285 286 285 285 285 285 284 284 284 284 284
315 315 314 314 314 313 312 312 311 310 311 311 312 313 314 314 314 315 316 316 316 315 314 314 315 315 317 318 317 317 316 316 315 315 316 316 316 316 315 314 313 312 310 307 302 300 299 298 297 297 296 294 292 291 294 294 291 293 295 293 292 295 295 290 289 288 287 286 286 285 286 285 285 285 285 285 285 285 284 284 284 283 284 284 284
315 314 314 314 313 313 312 311 310 310 311 311 312 313 313 314 314 313 314 314 312 311 313 314 314 315 315 316 316 316 315 315 313 313 314 316 316 316 316 315 313 310 308 306 303 300 299 299 298 298 297 296 293 292 295 295 293 294 296 295 295 298 294 289 291 292 288 287 285 285 285 285 285 284 284 285 285 284 284 284 284 284 284 284 283
315 315 314 313 313 312 312 311 310 310 310 311 312 313 313 314 314 314 314 314 313 314 316 317 316 315 313 313 315 315 313 313 313 312 314 315 316 316 316 316 313 309 308 306 304 302 301 299 298 299 297 296 294 294 295 297 296 295 297 297 295 296 295 291 292 291 289 288 287 286 285 284 284 284 284 284 284 284 284 284 284 284 284 283 283
314 314 313 313 312 312 311 311 310 309 309 310 312 313 313 313 313 313 313 315 316 317 318 316 315 314 310 310 313 314 313 312 312 312 313 314 316 316 315 315 313 311 308 307 306 305 302 299 298 298 297 296 295 296 296 297 297 296 297 296 294 294 294 293 292 291 290 291 289 287 287 285 285 285 284 284 284 284 284 284 284 284 283 283 283
314 314 313 312 312 311 311 310 309 309 309 309 311 312 313 313 313 313 312 313 314 315 316 314 313 312 308 308 311 312 312 313 312 312 312 313 314 314 313 312 313 312 310 308 308 306 302 299 298 297 297 297 296 296 297 297 297 297 297 295 293 293 294 293 293 291 291 292 290 287 287 286 286 286 285 284 283 284 284 284 284 284 283 283 283
314 314 313 312 312 311 310 310 309 309 309 309 311 312 313 313 313 313 312 311 311 311 311 310 310 310 306 305 308 310 311 313 313 312 311 312 312 312 311 310 311 312 310 308 308 306 302 300 299 298 297 297 296 296 297 297 296 296 296 295 293 293 293 292 293 292 291 291 290 287 287 287 286 286 286 285 284 283 284 284 284 284 283 283 282
314 313 312 312 311 311 310 310 309 307 307 308 310 312 313 312 312 312 311 310 310 310 310 308 308 309 306 305 308 309 311 312 313 312 311 310 310 310 309 308 309 310 309 308 307 305 302 300 300 299 298 298 297 297 297 296 295 295 295 294 292 292 293 291 292 292 292 291 290 289 288 287 287 287 286 286 285 283 283 284 283 283 283 283 282
Wind_Speed
11 12 13 12 13 14 15 13 11 9 10 11 11 12 13 14 14 15 15 15 15 15 16 17 17 18 18 18 18 18 18 18 18 18 18 18 18 18 19 19 18 18 18 19 19 19 19 19 20 21 21 21 22 23 23 22 23 24 26 27 26 24 24 27 29 29 29 28 28 28 28 27 28 30 30 28 27 25 26 29 31 32 30 30 30
11 11 12 12 13 14 15 13 10 9 9 10 10 11 13 14 14 14 15 15 15 15 16 17 17 17 17 17 17 18 18 18 19 19 19 19 20 19 19 19 18 18 19 19 18 18 19 19 20 21 21 22 23 24 24 24 26 28 30 30 29 28 25 25 27 27 28 29 30 30 30 28 28 29 29 29 29 27 25 26 29 30 29 28 29
12 11 12 13 14 14 14 12 10 8 9 10 10 11 13 14 13 14 14 15 15 14 15 16 17 17 17 17 17 18 18 18 19 19 19 20 21 20 19 19 19 19 19 18 17 18 19 19 20 21 23 24 24 24 25 26 28 31 31 31 30 29 28 27 26 26 26 28 30 31 31 29 29 29 29 29 30 29 27 26 26 27 27 25 26
12 10 12 13 14 14 13 12 9 8 8 9 10 10 12 14 14 13 14 14 14 14 15 16 16 17 17 17 18 18 18 18 19 19 19 20 21 20 19 19 19 19 18 17 18 18 19 19 21 22 23 24 24 24 26 28 29 31 30 29 28 27 27 27 26 26 26 26 29 31 31 30 29 28 28 29 29 30 30 29 28 27 27 26 25
12 10 12 13 13 13 12 12 9 8 8 8 10 10 11 13 14 13 13 13 13 13 14 15 16 16 17 17 18 19 18 18 19 20 20 20 20 19 19 18 18 19 17 17 18 19 19 19 20 22 23 24 25 26 28 30 31 31 30 29 28 26 25 26 26 26 26 28 30 31 31 30 29 27 27 28 29 30 30 30 30 30 30 29 28
12 10 11 12 13 13 13 12 9 8 9 8 9 10 11 12 13 13 13 12 12 13 13 14 15 16 17 17 19 18 18 18 19 20 19 19 19 19 19 18 18 19 18 18 19 20 19 18 20 21 22 23 24 27 29 31 31 31 30 29 29 27 25 26 26 24 24 27 30 30 30 29 29 27 26 26 27 29 29 29 30 30 31 31 31
12 12 11 11 12 13 13 12 10 9 9 9 9 10 10 11 13 13 13 12 12 12 12 13 14 16 16 17 18 18 18 18 19 19 19 19 18 19 19 18 18 17 17 17 18 19 19 19 20 21 22 22 24 27 29 29 29 27 26 26 27 27 26 26 24 25 25 25 27 28 28 28 28 27 26 26 26 27 28 28 29 30 30 31 32
13 13 12 11 12 12 12 12 10 9 9 8 9 9 10 11 12 13 13 12 11 12 12 13 14 15 16 17 17 17 17 18 19 19 19 18 18 18 19 18 17 16 15 17 18 19 19 18 19 20 21 21 23 25 28 28 27 26 26 26 26 26 27 26 24 26 27 26 26 26 26 26 27 26 25 25 26 26 27 28 28 29 30 31 32
14 13 13 12 12 12 11 12 10 9 8 9 9 10 10 10 11 12 12 11 11 11 11 12 13 14 15 16 16 17 17 18 18 18 18 18 18 18 18 16 14 15 16 17 18 18 18 17 18 19 20 20 22 23 25 26 25 26 26 26 27 27 27 26 25 26 26 26 25 25 25 24 25 25 24 25 26 26 27 28 29 29 29 30 30
13 13 12 12 14 12 12 13 11 9 8 9 9 9 9 9 10 11 12 11 11 11 11 11 12 13 15 16 16 16 16 17 18 18 18 18 18 18 18 15 13 16 17 18 17 17 16 16 17 18 19 19 20 21 23 23 25 26 26 26 26 27 27 27 26 27 27 26 24 24 24 23 23 24 24 24 25 25 26 28 29 28 28 28 28
13 12 11 13 14 13 12 12 12 10 8 9 8 9 9 8 9 11 11 11 11 11 11 11 12 13 14 15 15 16 16 16 17 18 18 18 18 17 16 14 15 16 16 17 16 15 15 15 16 18 19 18 18 19 21 22 24 26 27 27 26 26 26 26 27 28 28 27 26 25 24 24 24 24 24 25 26 25 26 27 27 27 28 28 29
13 11 11 13 15 13 12 12 12 11 9 8 8 9 8 8 9 10 10 11 11 10 11 11 11 12 13 15 15 16 16 16 17 18 17 17 17 17 16 14 15 15 15 16 15 14 15 15 16 18 18 17 18 19 20 23 25 27 28 28 28 27 26 26 27 28 28 29 28 27 26 25 26 25 26 27 28 28 28 28 28 29 29 30 30
13 10 10 14 15 13 13 12 12 11 10 9 8 8 8 8 8 9 10 10 10 10 10 11 11 11 13 14 14 15 15 15 16 17 17 17 17 17 16 15 15 15 15 15 14 14 15 16 16 17 17 17 20 21 21 23 24 25 24 25 25 26 26 27 27 26 27 28 29 28 27 25 25 25 26 28 28 29 30 29 29 30 30 31 32
12 9 10 14 14 13 13 12 12 12 11 10 8 8 7 7 7 8 9 10 10 9 10 10 10 10 12 13 13 14 14 14 15 16 17 17 17 17 17 17 17 16 16 15 14 15 16 16 16 17 17 19 22 22 22 23 22 22 21 20 22 24 26 27 27 26 26 27 27 27 26 25 24 25 28 28 28 29 29 28 29 29 29 30 31
12 11 11 13 14 13 13 12 12 12 11 10 9 8 7 7 8 8 8 9 10 9 9 9 9 10 11 12 12 13 13 13 13 15 17 17 17 17 17 17 17 16 15 15 16 16 15 15 15 16 19 21 23 23 24 23 23 24 25 25 24 25 26 26 26 26 26 26 26 26 25 25 24 26 29 29 28 29 29 28 29 29 28 29 30
14 13 12 11 12 13 13 12 11 11 11 11 10 9 8 8 8 8 8 9 9 9 9 9 8 9 10 10 11 12 12 12 12 13 15 17 18 18 17 16 16 14 14 15 16 15 14 15 17 19 22 23 24 25 25 25 25 26 28 28 26 24 24 26 27 26 26 26 27 26 26 25 24 25 27 28 28 29 28 29 28 28 28 28 29
14 14 12 10 10 12 13 11 11 11 10 10 10 9 9 8 8 8 8 9 9 9 9 8 8 9 9 9 10 11 11 11 11 11 13 16 17 17 17 15 15 14 13 16 16 15 17 18 19 22 24 25 26 26 26 25 25 26 27 26 26 25 24 26 27 27 26 26 27 26 26 25 24 25 27 27 27 27 27 28 28 28 29 30 32
12 12 11 12 12 11 12 12 11 11 10 10 9 9 9 9 9 8 8 9 9 10 9 8 8 8 9 9 9 10 11 11 11 11 12 13 15 15 15 14 15 15 15 16 16 18 19 20 21 23 25 27 27 27 25 24 23 23 24 25 25 26 27 28 29 28 27 27 28 27 27 26 26 26 27 27 27 26 26 26 26 28 31 32 32
11 10 11 13 14 13 12 11 12 12 11 10 10 9 9 9 10 9 9 9 10 10 9 8 8 8 8 8 9 10 11 11 11 11 11 11 12 13 13 14 15 16 16 17 18 19 20 21 22 23 25 27 27 26 25 24 22 20 21 24 26 28 31 32 32 31 31 30 29 29 29 28 29 29 29 28 29 29 29 29 30 32 34 33 32
11 10 11 12 13 14 12 11 13 13 11 10 10 10 10 10 10 10 9 9 10 10 10 9 8 8 8 8 7 8 10 11 11 11 11 11 11 12 13 14 15 17 18 19 20 20 21 22 22 23 24 24 24 24 24 24 22 19 20 25 28 30 32 33 33 33 32 31 30 30 28 29 31 31 30 31 31 31 32 34 35 36 36 35 34
10 10 11 12 13 13 13 12 12 12 11 10 11 11 11 10 11 11 10 10 10 11 10 10 9 8 8 7 6 8 10 11 11 11 11 11 11 12 13 15 17 18 19 20 21 21 22 22 22 22 21 21 20 21 22 24 24 24 25 28 30 32 33 34 34 34 33 31 30 29 27 28 30 30 30 31 31 29 31 33 35 35 35 35 34
13 11 11 12 13 12 12 13 13 11 10 9 10 11 12 11 11 12 12 11 11 11 11 11 11 10 8 7 7 8 9 10 11 11 12 11 11 12 14 17 18 20 21 21 22 22 22 23 22 22 20 19 19 20 22 24 26 27 28 30 32 33 34 35 36 36 35 32 29 27 26 27 28 29 28 28 28 28 29 32 34 34 34 33 33
15 14 14 13 13 13 12 12 11 11 10 10 11 10 12 13 12 12 13 13 11 12 12 12 12 11 10 8 9 10 9 10 10 11 12 12 12 13 15 17 19 20 21 21 21 22 22 22 21 20 19 19 19 19 22 25 27 27 29 30 31 32 33 35 36 36 35 33 30 28 28 27 27 28 27 26 27 29 29 29 31 32 33 32 31
16 16 16 14 14 16 15 13 11 12 12 10 11 10 11 13 13 13 13 14 13 13 13 14 13 13 12 10 12 13 11 10 10 10 11 13 14 15 16 17 19 19 20 21 21 21 20 19 19 18 18 18 18 19 21 24 27 27 28 29 30 30 31 32 33 34 35 34 31 29 29 29 29 29 28 28 28 30 30 29 29 30 31 31 30
16 15 15 17 16 16 17 17 15 15 13 10 10 10 11 13 14 14 14 15 15 15 14 15 15 14 14 13 15 15 12 11 11 11 12 14 15 16 17 17 18 19 19 18 17 16 16 16 16 16 17 17 18 20 21 24 27 28 27 27 27 28 29 29 30 32 33 34 32 30 29 29 29 28 28 29 29 30 30 30 29 29 30 31 30
18 17 15 16 16 15 16 16 16 15 14 12 10 11 11 12 14 15 16 16 15 16 16 16 17 16 17 15 16 17 14 14 13 13 14 14 16 17 17 18 19 19 16 12 11 11 12 12 14 15 16 18 19 21 22 24 28 28 27 26 26 26 27 27 27 29 31 32 32 30 30 28 27 26 26 27 28 28 28 28 29 29 29 30 30
19 19 15 14 15 15 15 15 14 13 14 14 11 12 13 13 13 14 16 18 17 17 17 18 18 18 19 18 18 19 17 16 16 15 15 15 16 17 18 19 18 16 11 8 9 10 11 12 14 16 18 19 21 23 24 26 28 28 27 26 26 26 26 25 26 27 28 30 31 30 29 29 27 26 25 26 27 27 27 27 28 28 28 29 29
18 17 14 14 15 16 16 16 14 11 13 15 12 11 12 13 14 14 16 17 18 19 19 18 18 19 20 19 19 21 20 19 18 18 18 17 18 18 19 18 15 13 11 10 11 11 13 14 17 19 21 22 24 25 26 28 28 28 28 27 27 27 26 25 24 25 26 28 30 30 29 28 28 27 26 26 26 26 26 26 27 27 27 28 28
17 17 16 15 14 15 15 16 16 12 11 12 12 10 10 12 12 14 17 17 16 18 19 19 18 19 21 20 19 21 21 20 20 20 21 21 20 19 19 18 15 15 13 12 13 14 16 18 20 23 24 26 27 28 29 29 29 29 29 29 28 27 26 26 25 25 25 25 29 30 30 29 28 27 26 25 25 25 26 26 26 26 26 27 27
17 17 18 16 13 14 14 14 14 13 11 11 12 11 11 13 12 13 17 18 16 16 17 18 18 18 18 18 19 22 23 22 22 23 24 23 22 22 21 19 18 17 15 15 16 15 18 21 24 25 26 28 29 29 30 30 30 29 28 28 28 26 25 25 26 26 26 25 25 27 29 29 28 27 26 26 25 25 25 25 25 25 25 26 25
16 17 17 16 14 14 15 15 14 14 15 14 13 13 12 14 15 15 17 18 19 18 17 16 16 16 16 18 19 22 24 25 25 25 26 25 24 24 23 22 21 19 17 18 18 18 21 24 26 27 28 29 29 29 30 30 29 27 27 27 26 26 25 24 24 26 26 26 25 24 24 26 27 27 26 26 25 25 25 25 24 24 24 24 24
16 17 16 16 16 16 16 16 16 16 17 17 15 15 14 13 15 17 18 19 19 19 21 19 17 17 17 18 19 22 24 26 28 28 27 27 26 27 25 24 23 21 20 20 21 22 23 25 27 28 29 29 29 28 28 29 28 26 26 26 25 25 25 24 24 24 25 26 26 25 24 23 24 25 25 25 25 25 26 26 24 24 23 23 23
18 18 17 17 17 17 16 15 16 16 16 17 16 15 14 13 16 17 17 19 18 17 19 21 20 19 19 18 19 21 22 25 29 29 28 29 29 28 27 25 24 23 22 22 23 24 24 26 28 29 29 30 29 28 27 28 27 25 25 24 24 24 23 23 23 23 23 25 26 26 25 24 23 23 24 23 23 23 24 25 24 23 23 23 23
19 19 18 18 17 17 16 16 16 17 16 14 14 14 13 14 16 16 15 16 18 16 16 20 21 21 19 17 18 20 20 23 28 28 28 29 30 29 28 26 25 24 24 24 23 24 26 27 29 29 29 30 28 27 27 27 25 24 24 23 24 23 22 22 22 22 23 24 24 25 25 24 24 23 22 22 22 22 22 23 23 23 23 23 22
20 20 19 18 18 17 17 17 17 16 15 14 15 16 15 15 16 17 17 15 16 16 16 18 20 20 19 17 18 19 19 21 25 26 27 29 31 30 28 26 26 26 26 25 23 26 28 29 29 29 29 29 28 26 26 26 25 24 23 23 23 23 22 22 21 21 21 22 23 24 24 23 23 23 22 22 22 23 22 22 22 23 22 22 22
20 20 20 18 18 18 17 18 17 15 16 16 18 20 17 16 18 19 20 17 16 17 17 18 19 19 18 16 16 17 19 21 24 27 28 30 32 31 29 28 28 28 27 25 26 29 30 29 28 28 29 29 28 26 25 26 25 24 23 23 23 22 22 22 21 21 21 21 22 21 21 21 21 21 21 21 22 23 22 22 22 22 22 22 22
20 20 20 19 18 18 18 17 16 14 15 17 20 22 19 17 19 19 18 17 19 20 19 19 19 19 17 16 16 18 20 23 25 28 29 30 32 30 29 29 30 30 28 28 29 30 30 30 27 26 29 29 28 27 26 25 25 23 23 22 21 21 21 21 21 21 20 21 20 20 20 19 19 20 20 20 20 21 21 21 21 21 21 21 20
21 19 19 19 19 18 18 17 15 13 15 17 19 21 20 19 20 18 14 13 16 20 21 21 20 19 18 17 19 20 23 24 24 27 28 30 31 30 30 31 32 31 30 30 31 31 30 29 27 25 26 28 28 28 26 26 25 24 23 21 20 20 19 19 20 20 20 20 19 19 19 18 18 19 19 19 19 19 19 19 18 18 19 20 20
22 19 19 19 19 18 18 16 14 14 16 16 16 20 21 20 19 16 13 12 14 17 20 21 21 20 19 19 20 22 24 23 23 25 28 29 30 31 31 32 33 33 33 33 32 32 30 29 28 26 25 26 27 28 28 27 26 24 22 20 19 18 18 18 19 19 19 19 19 18 18 17 17 18 18 18 18 17 17 16 16 17 17 18 19
22 21 20 20 20 20 18 17 17 16 16 15 15 19 21 20 18 15 15 14 15 15 16 18 19 20 19 20 20 21 23 23 21 23 27 29 31 32 33 34 34 34 34 34 34 33 31 30 28 27 27 26 26 28 28 28 27 24 21 20 18 17 17 17 17 17 17 17 17 17 17 17 17 16 16 16 15 15 15 15 15 15 16 16 17
21 22 22 22 22 21 19 19 19 17 16 16 16 21 22 21 19 18 18 17 15 14 14 15 17 19 19 19 20 20 22 23 22 24 26 29 31 32 34 34 33 33 33 33 34 32 31 30 29 28 29 29 28 27 28 30 29 24 20 18 17 15 14 14 15 15 15 15 15 15 15 15 15 15 14 14 13 13 13 14 14 14 15 15 16
23 24 24 23 22 21 20 20 19 19 18 17 18 22 23 22 21 20 19 18 17 15 15 15 17 18 19 19 20 21 22 23 23 24 26 28 31 32 34 33 33 33 33 33 32 31 31 31 31 29 29 30 29 29 30 27 23 23 22 17 13 11 11 11 12 12 12 13 13 13 13 13 13 12 12 12 12 12 12 12 13 14 15 15 16
23 24 23 23 22 21 21 20 19 20 20 17 19 21 21 21 21 19 20 19 18 17 16 16 17 18 19 20 20 22 23 24 24 24 26 29 31 33 34 34 34 34 34 33 31 31 32 32 33 32 31 29 28 31 28 20 21 26 21 12 6 6 6 6 8 9 10 11 10 11 11 11 11 10 10 10 10 10 11 11 13 14 15 15 16
22 23 23 23 22 22 22 20 19 19 20 18 19 21 21 20 19 19 19 19 17 17 17 18 19 19 20 21 22 24 25 25 25 25 27 29 31 33 34 34 35 35 35 35 33 33 34 33 33 33 34 31 29 30 22 17 26 26 13 6 6 5 2 3 7 7 7 9 9 9 9 9 10 8 8 8 8 9 10 11 13 14 15 15 15
23 24 24 23 22 21 21 20 19 18 20 20 20 22 22 21 20 18 18 18 17 17 18 19 20 20 21 22 23 26 28 27 26 25 27 29 30 32 33 35 36 36 36 36 35 35 35 35 34 34 36 34 33 31 20 18 25 20 10 8 7 2 2 8 11 6 4 6 7 9 8 7 8 7 6 6 7 7 9 11 12 13 14 15 15
22 23 24 23 21 20 20 20 19 18 20 23 23 23 22 22 22 21 21 20 18 19 20 20 21 22 23 23 24 27 28 28 27 27 27 28 30 31 32 34 36 36 35 35 35 35 35 35 34 34 35 35 34 32 25 23 24 19 12 9 5 3 9 14 9 3 3 4 4 6 7 7 7 6 5 4 5 6 7 9 10 11 13 14 15
21 22 23 22 21 20 21 21 20 20 21 24 25 24 23 23 23 23 23 22 21 21 21 22 23 24 24 24 25 27 28 28 29 28 27 28 29 30 32 34 35 35 35 35 34 34 35 34 34 34 34 33 33 32 29 27 25 21 16 10 4 5 16 18 9 5 5 4 5 5 4 6 6 5 4 3 3 4 5 7 9 10 12 14 14
21 22 23 23 22 21 21 21 21 21 22 24 25 25 24 24 24 23 23 23 23 23 22 23 23 24 24 24 25 26 26 27 29 29 28 28 28 30 32 34 35 35 34 34 34 34 34 33 33 33 32 31 30 31 31 29 27 21 16 10 5 9 17 16 14 12 7 3 5 6 5 5 4 3 4 3 2 3 4 5 7 10 12 13 13
21 22 24 23 22 22 21 21 21 22 23 25 25 25 24 24 24 23 22 22 22 22 22 23 24 24 23 23 24 25 26 26 27 28 28 28 29 30 32 34 35 35 34 33 33 32 33 33 33 32 29 28 28 28 29 29 27 23 19 12 10 15 16 11 14 13 7 5 5 6 9 8 5 5 4 2 2 1 2 4 7 9 10 11 12
21 22 22 22 23 22 21 22 21 22 23 25 25 25 24 24 24 24 22 21 20 20 21 22 24 24 23 23 24 25 25 26 27 28 28 29 30 31 32 33 34 35 34 33 32 32 33 33 32 31 28 26 26 26 26 27 26 22 20 15 14 19 15 10 13 12 9 8 5 8 15 14 10 9 7 3 2 2 1 4 7 9 9 10 12
20 21 22 22 23 22 21 22 21 20 22 24 25 25 25 25 25 25 23 22 22 21 22 23 24 25 24 24 24 24 25 26 27 28 28 29 30 31 31 31 32 33 33 32 32 33 34 33 31 30 27 25 25 24 22 23 23 19 17 15 15 19 16 12 14 13 11 9 7 10 15 15 12 11 9 6 3 2 1 3 5 7 8 9 12
Wind_Direction
126 130 129 127 120 124 125 118 118 123 121 119 116 109 107 106 102 99 95 85 78 75 71 69 69 68 67 63 60 61 61 64 67 68 70 73 74 76 78 78 78 78 78 76 77 77 75 72 70 69 66 67 68 67 68 71 72 74 77 77 74 71 69 67 60 58 61 64 64 62 60 58 57 56 58 60 61 60 60 61 60 60 59 60 60
132 134 134 132 127 128 128 123 124 124 119 121 117 109 110 109 103 101 96 87 80 76 73 70 69 69 70 68 65 64 64 64 68 69 70 75 77 78 79 79 79 80 80 80 83 83 80 75 72 71 69 70 70 70 72 73 77 81 82 80 77 75 72 69 66 61 61 62 64 65 62 60 59 57 57 59 61 62 61 60 62 61 59 60 60
132 136 138 136 131 131 130 124 124 120 116 121 118 112 113 111 105 102 97 88 81 77 74 71 68 67 67 67 68 69 66 65 69 69 71 76 78 78 79 79 80 82 83 83 83 81 78 74 73 74 73 72 70 72 75 75 81 85 83 81 79 78 77 73 70 69 65 62 63 64 63 61 59 59 58 58 60 63 64 62 63 62 61 59 58
133 138 139 139 136 135 134 127 125 121 116 121 121 116 114 113 106 101 97 89 83 80 76 72 68 66 66 65 66 69 68 66 70 70 72 76 77 78 78 79 81 83 85 87 85 80 76 73 72 73 74 74 73 75 78 80 84 84 80 77 75 76 79 77 70 71 69 65 65 64 63 63 60 59 59 59 59 61 63 63 63 64 63 60 58
138 141 138 139 139 140 139 131 131 130 122 123 124 119 115 115 108 101 97 90 85 83 77 73 68 67 66 63 63 67 69 68 71 73 74 76 77 78 78 80 83 84 85 89 89 83 78 75 73 74 75 75 76 79 81 84 85 82 78 75 71 71 75 76 71 71 69 65 67 66 64 64 62 60 60 61 61 61 61 61 61 62 62 60 59
138 138 135 138 140 141 138 133 138 136 127 127 127 122 119 118 112 104 101 95 89 86 80 74 68 66 65 61 60 64 68 70 73 76 76 76 77 78 80 83 85 85 82 82 82 79 79 79 76 76 77 76 78 81 84 85 85 83 80 78 77 75 73 74 71 68 69 66 66 66 65 64 63 62 62 63 62 62 62 61 61 61 61 60 59
138 137 135 142 142 142 137 134 143 137 130 131 129 124 121 120 114 109 107 100 93 88 82 77 69 65 65 60 58 61 65 71 76 78 78 78 78 80 82 84 84 87 89 85 83 83 85 84 79 78 79 78 79 82 85 85 83 80 76 76 79 79 74 72 68 67 74 73 68 66 66 65 65 64 63 64 64 63 63 63 62 62 62 62 61
140 141 142 148 144 143 138 135 140 137 133 130 128 125 122 120 115 112 111 104 96 91 84 79 71 66 66 63 61 63 66 73 79 81 82 81 81 82 81 85 88 92 99 97 94 93 90 86 80 80 81 80 82 83 86 85 79 74 70 72 76 78 74 71 70 69 72 75 74 71 69 67 67 67 65 65 66 66 66 66 66 65 64 63 63
143 145 147 151 146 143 140 136 137 138 137 129 129 127 123 121 118 116 112 107 99 93 88 81 75 69 67 67 65 66 69 76 81 81 83 84 84 83 83 91 97 96 97 96 95 93 90 85 80 80 81 83 84 84 86 84 78 72 70 72 76 78 74 71 69 67 67 70 76 76 74 72 71 71 69 69 69 69 71 70 68 67 66 65 65
147 150 150 153 147 144 143 140 138 140 140 133 132 127 125 125 122 120 115 112 104 96 93 87 80 74 71 71 69 69 71 77 84 83 83 86 86 85 87 89 89 90 92 93 92 89 89 85 81 82 81 83 86 86 86 84 78 74 71 73 77 78 77 75 70 65 63 65 72 76 76 74 74 73 71 70 71 73 77 76 73 71 69 68 68
149 154 153 154 150 148 145 143 142 140 143 139 135 128 129 128 126 123 118 117 110 103 99 93 87 79 75 75 73 73 74 80 87 88 87 87 86 87 92 89 81 84 88 88 89 90 90 85 83 83 79 81 86 88 88 84 80 76 74 74 75 75 75 77 75 69 63 61 66 72 73 71 70 72 71 71 71 73 76 76 74 71 70 69 67
153 156 152 155 153 154 150 146 144 139 144 146 140 133 132 132 130 126 123 122 116 110 104 98 92 84 80 78 76 76 78 84 90 92 91 90 89 88 94 93 84 85 86 86 90 92 89 83 82 81 78 81 85 90 89 84 81 77 76 76 73 71 71 74 74 72 68 63 62 65 68 69 70 71 72 72 72 72 73 72 71 70 69 69 67
154 155 149 159 157 157 154 148 145 139 142 148 149 141 137 138 132 128 127 127 122 114 109 103 97 90 84 80 78 79 81 86 93 95 95 94 93 91 92 92 89 87 85 87 92 92 87 84 83 80 79 83 86 91 91 84 80 79 79 80 77 70 70 72 69 68 69 66 62 60 62 66 69 70 72 73 73 73 72 71 70 69 68 68 67
152 151 149 165 161 159 159 153 149 145 143 145 153 149 145 146 140 134 130 130 126 120 113 107 103 95 87 83 80 82 84 88 95 100 101 98 95 94 94 93 92 90 88 90 91 89 87 84 82 80 82 87 90 92 91 85 81 81 80 82 82 77 75 74 70 68 67 67 64 61 61 63 66 69 70 71 72 73 72 70 68 67 67 66 66
149 149 148 162 165 165 164 161 157 153 150 150 154 155 156 153 150 144 135 134 131 126 120 113 109 100 93 87 83 84 85 88 95 104 106 102 98 97 98 97 95 96 98 98 93 88 86 84 83 86 89 92 94 95 93 87 82 80 80 82 84 83 81 77 74 73 70 68 66 65 66 64 62 65 67 68 69 70 70 69 68 66 65 64 64
146 147 149 156 166 173 169 168 168 163 159 157 158 158 159 158 159 154 143 140 138 134 128 122 116 107 100 91 87 88 86 88 92 103 109 107 104 101 101 101 98 103 107 98 91 89 89 89 92 95 97 97 99 99 94 87 83 82 83 84 84 84 84 81 79 78 75 74 73 71 71 69 64 64 67 67 67 67 68 68 67 66 64 63 63
148 147 151 149 155 172 173 173 175 174 172 165 161 160 159 162 167 164 153 149 147 143 137 133 126 115 105 97 93 92 89 88 90 99 110 112 109 107 107 105 102 105 104 94 92 95 96 97 99 101 102 103 103 99 93 88 86 87 89 89 87 85 84 81 80 79 78 77 75 74 77 77 73 71 72 72 70 69 68 67 67 66 64 64 63
148 148 154 152 150 162 172 177 181 184 183 175 168 163 161 165 174 173 163 158 156 152 149 143 132 123 113 104 99 96 92 88 90 97 107 114 116 116 113 109 105 104 100 98 101 102 103 103 104 105 108 109 105 100 96 92 89 89 92 93 91 88 85 82 79 78 77 76 73 74 75 76 77 77 76 76 75 74 72 71 71 70 68 66 65
142 152 160 158 158 160 165 174 181 186 188 183 179 175 167 167 177 180 173 166 163 161 159 151 140 132 121 111 101 98 96 91 92 97 104 112 116 117 113 109 105 104 104 106 107 107 106 106 107 109 114 114 108 102 97 93 89 88 92 93 92 92 88 84 80 77 75 74 74 74 73 74 77 76 76 77 76 76 74 74 72 71 71 68 66
147 163 171 162 163 167 168 169 175 181 186 187 186 184 177 173 177 183 181 173 170 168 165 158 151 145 131 118 105 103 103 99 98 100 106 111 115 116 114 110 106 107 109 109 109 108 108 108 110 114 118 118 111 105 98 91 86 86 93 93 93 91 88 85 82 78 74 74 74 74 74 75 77 76 75 75 74 73 72 71 69 68 68 65 63
166 176 183 174 171 177 177 169 168 174 179 187 190 186 183 181 178 183 184 179 178 173 169 165 160 156 146 131 118 116 112 107 105 106 111 116 118 118 115 113 112 113 114 114 114 113 113 114 114 114 116 116 113 108 99 92 88 89 94 95 92 89 87 86 83 79 75 73 72 73 74 75 76 75 72 71 71 71 70 69 67 64 63 61 60
178 179 186 188 183 183 182 171 164 166 175 182 187 189 188 186 183 185 186 184 183 178 175 174 169 165 159 147 132 126 120 115 113 115 119 122 122 120 120 119 119 120 120 120 120 120 119 118 117 115 113 113 113 110 104 99 97 96 97 96 91 87 87 85 83 79 75 73 71 72 73 74 75 74 71 72 73 70 70 68 65 64 63 62 61
178 178 179 187 188 182 179 180 175 170 181 187 185 191 190 189 190 189 189 188 186 183 183 180 178 175 167 148 136 138 133 122 119 122 124 125 126 125 125 126 125 125 124 124 123 123 122 121 121 121 120 118 115 113 111 108 106 104 101 98 93 89 89 87 84 81 77 74 72 71 71 71 73 73 71 72 72 68 66 66 65 65 64 63 62
176 179 179 180 184 182 176 183 190 181 187 194 190 192 193 192 192 191 192 195 193 189 190 187 185 183 169 150 152 161 153 134 128 131 130 130 130 130 129 128 127 126 126 125 124 124 125 128 131 132 130 125 118 114 114 114 114 111 106 102 97 94 93 90 87 84 81 77 74 72 69 69 69 69 68 68 68 66 65 64 63 63 64 63 62
177 176 181 182 184 187 179 180 189 188 186 192 197 194 196 197 195 195 194 197 199 195 195 193 192 189 172 163 171 177 166 150 146 143 139 136 134 134 132 129 127 126 124 121 121 128 133 135 137 137 134 128 123 118 116 115 117 116 111 107 103 100 97 94 92 88 85 81 76 75 72 69 69 69 68 69 68 67 66 66 64 63 64 64 61
179 178 181 184 189 190 185 184 187 191 185 184 201 200 196 198 196 199 197 196 199 197 199 199 198 193 181 177 180 182 175 163 158 152 146 144 143 140 136 134 132 125 119 117 126 141 142 139 138 135 131 129 125 121 117 115 118 118 114 111 108 105 102 98 97 93 90 86 80 76 75 73 71 71 71 70 69 69 67 66 66 64 64 63 61
175 181 185 187 193 190 186 184 182 195 192 180 193 202 202 205 201 202 204 199 195 197 203 204 202 196 190 190 185 184 182 172 166 161 156 156 152 147 144 140 132 123 125 141 149 149 144 139 135 130 128 127 125 121 118 116 117 117 114 111 108 106 104 101 99 97 95 92 85 78 77 76 74 73 72 71 70 69 68 66 65 64 62 62 61
175 179 187 191 194 191 191 190 182 189 196 185 188 202 212 219 214 209 208 206 202 199 203 207 206 202 198 197 190 185 184 178 172 169 164 163 159 156 152 142 134 140 158 169 158 149 142 138 134 129 127 126 124 121 118 116 115 115 112 107 104 102 101 101 99 98 97 95 90 83 78 76 76 75 73 72 71 69 68 67 65 64 63 62 61
187 186 187 190 192 193 197 201 194 190 199 197 194 202 219 229 226 218 210 208 212 207 206 210 208 207 203 200 196 188 186 182 179 175 169 165 163 165 159 148 153 167 175 172 160 151 143 138 133 129 128 126 123 120 118 116 114 113 111 106 102 98 96 95 95 95 94 94 93 90 84 77 75 75 75 74 71 69 67 66 66 65 64 62 61
190 191 192 192 193 196 197 199 199 198 202 204 203 203 217 233 235 229 216 204 207 210 211 215 212 212 206 201 201 193 188 187 183 178 173 169 168 171 168 163 169 179 181 169 159 155 146 139 133 130 130 126 122 119 118 115 113 112 111 109 106 102 97 93 91 90 90 91 92 94 92 86 80 76 75 75 73 72 70 68 67 66 64 62 61
187 188 194 193 190 194 194 194 196 200 203 202 205 204 210 235 238 235 231 213 206 208 212 215 213 214 206 201 204 197 193 191 186 181 177 174 174 176 175 174 175 181 182 168 158 154 145 138 134 133 132 128 122 119 118 116 112 111 110 109 109 108 105 101 96 93 91 89 89 91 94 95 91 83 77 74 74 75 72 70 68 66 65 63 60
191 190 195 194 193 197 198 201 203 207 213 208 206 204 203 228 236 233 238 228 215 211 215 214 205 208 208 206 207 202 200 197 188 183 183 180 179 180 179 181 181 181 179 168 158 153 146 140 136 134 132 128 122 118 118 116 112 111 111 110 111 112 110 109 106 102 98 94 91 89 89 92 94 93 87 79 76 76 73 71 70 68 65 63 62
196 195 196 196 198 204 202 206 209 210 217 214 212 207 203 226 233 224 231 232 221 212 215 213 203 203 210 210 209 207 204 199 192 187 187 185 183 183 184 186 184 180 175 169 161 155 149 143 138 134 132 128 123 119 119 116 113 113 113 113 113 113 113 113 112 110 107 103 99 96 93 91 92 94 94 89 83 79 75 72 70 69 67 64 62
199 197 198 198 200 205 203 205 209 211 214 215 212 202 201 225 227 213 215 228 225 216 213 211 203 202 207 207 207 209 206 198 196 194 193 191 186 185 187 187 184 181 174 169 164 154 149 145 139 134 130 129 124 120 120 116 113 113 113 115 114 113 115 115 114 114 113 110 108 104 100 97 94 93 93 93 90 85 80 75 70 68 65 64 62
199 198 199 200 202 206 206 209 214 218 218 213 205 194 194 216 222 212 208 214 218 217 220 215 207 206 208 208 205 209 207 199 200 202 201 196 190 188 189 187 184 180 172 169 162 152 149 146 141 135 129 128 125 121 119 116 114 112 112 114 114 115 116 115 116 116 115 115 113 109 106 103 100 97 94 93 91 88 85 81 76 70 65 61 58
197 198 198 198 204 209 210 216 221 223 221 213 203 192 190 209 220 219 216 214 209 209 217 214 208 206 206 206 205 206 207 205 205 207 203 197 193 190 190 188 183 177 172 168 160 153 150 145 142 140 132 128 126 122 120 118 116 113 113 114 115 117 117 116 117 116 115 115 113 111 109 106 103 100 97 94 92 88 84 82 79 76 70 62 57
194 197 197 197 203 210 212 218 222 221 220 215 206 194 192 208 217 221 221 216 210 208 214 215 210 208 207 210 211 208 210 210 206 204 201 196 194 192 189 187 181 176 171 165 159 156 153 147 142 141 137 133 130 126 122 120 118 117 116 116 115 116 117 118 118 117 117 116 113 111 108 106 104 101 98 94 91 88 85 81 78 75 72 67 61
194 197 198 199 204 211 213 215 216 212 214 217 209 194 195 208 214 221 223 213 210 211 217 219 219 221 223 221 214 209 210 209 204 202 200 195 194 193 188 182 178 174 170 164 161 158 155 150 143 140 141 139 135 131 127 124 121 119 116 114 115 115 115 118 120 119 119 116 113 112 110 108 106 101 98 93 89 86 83 81 77 74 72 68 63
195 196 199 201 204 211 213 209 203 201 209 219 210 193 196 209 213 219 223 219 216 214 217 218 218 223 225 218 210 207 207 204 200 199 199 196 194 191 184 179 176 172 167 162 159 156 153 150 145 142 142 142 139 136 132 128 123 120 117 114 114 115 115 118 120 119 117 116 115 114 112 109 105 101 97 93 89 85 82 79 75 72 69 68 64
194 195 198 199 201 208 209 203 197 200 210 216 205 193 198 208 212 216 217 217 215 211 212 212 210 212 211 208 206 205 204 202 198 196 197 196 192 186 180 177 174 170 166 160 157 155 153 151 149 147 144 141 140 139 137 134 125 116 114 114 114 115 117 120 122 122 120 120 120 117 113 107 102 99 95 92 89 85 81 77 72 69 66 64 62
191 194 196 197 200 205 204 201 197 198 211 213 200 195 198 201 205 209 210 210 208 204 205 204 201 202 201 202 204 201 198 198 197 194 194 193 188 182 179 175 173 172 169 164 159 156 155 154 153 153 151 145 141 143 144 138 126 115 110 106 104 108 115 122 125 129 130 130 129 123 117 110 104 99 96 94 90 83 79 73 68 65 61 58 56
189 193 195 196 199 201 202 203 198 195 206 211 201 198 202 203 204 205 206 206 205 205 208 204 199 199 199 199 201 198 193 192 193 191 191 189 184 181 179 177 176 174 171 165 160 159 159 160 158 156 155 151 148 149 149 143 131 126 124 111 98 97 104 114 120 128 136 137 138 133 125 119 111 105 101 95 88 82 75 70 65 61 57 53 50
190 192 195 195 196 198 200 202 201 197 200 207 204 201 203 206 206 207 207 205 205 210 214 210 204 200 199 198 196 194 189 185 185 187 187 186 184 181 179 178 177 175 170 165 163 163 163 166 166 161 155 152 152 155 155 152 142 135 129 122 123 117 102 108 114 121 136 138 139 136 129 125 117 112 108 98 89 82 74 67 61 56 53 49 45
191 192 193 194 195 197 198 199 204 202 196 199 204 203 202 201 203 207 209 207 208 213 213 211 207 201 198 196 192 189 184 179 180 184 183 182 182 181 179 177 177 176 174 169 168 169 170 171 171 167 161 156 156 160 159 158 152 142 130 130 149 144 139 160 133 116 133 140 140 138 132 130 126 122 116 103 92 81 71 65 57 53 49 45 42
191 193 193 195 195 198 200 200 205 204 196 198 201 203 201 198 199 201 203 203 206 208 206 205 202 197 196 193 190 187 183 178 178 181 183 183 182 182 181 178 177 177 176 174 173 174 175 175 175 173 171 166 163 166 168 169 164 156 144 142 145 156 177 155 140 125 145 148 146 149 143 140 139 135 128 108 92 78 66 62 56 51 46 42 39
193 195 195 196 196 198 200 200 202 200 198 202 203 203 203 202 199 196 196 196 197 201 203 204 200 195 192 190 189 187 183 180 177 178 182 184 184 183 183 181 179 178 178 178 177 178 178 179 180 179 178 174 167 170 177 178 179 184 189 179 179 198 162 149 139 127 167 178 166 155 153 155 156 152 139 114 93 80 64 57 51 47 43 38 35
194 194 194 196 196 198 199 200 203 199 199 205 206 206 206 205 205 203 202 201 200 204 207 207 202 195 192 190 189 188 185 182 180 180 182 184 186 186 186 185 182 180 181 182 181 183 183 182 184 183 181 179 173 173 177 179 185 199 210 199 184 183 167 160 158 145 151 203 208 185 178 169 164 159 145 128 106 87 66 54 45 41 39 34 30
191 192 193 194 196 198 200 203 205 201 201 206 207 208 208 207 206 205 206 207 208 208 207 205 201 196 192 191 191 189 187 185 183 183 183 185 188 189 188 187 185 184 186 187 187 188 186 183 185 186 184 185 184 180 178 182 188 195 203 196 162 168 170 170 176 164 136 156 192 196 203 193 185 175 153 142 133 93 70 56 42 38 34 29 25
190 191 192 194 197 199 200 202 204 203 204 207 207 209 212 211 208 205 205 206 207 207 205 202 198 196 193 192 193 192 190 188 187 187 187 188 189 190 190 189 187 188 190 192 193 192 188 186 186 186 186 190 192 188 184 187 191 193 194 186 157 158 163 166 176 171 146 141 168 187 182 180 200 219 211 169 155 135 81 59 43 37 31 25 21
190 192 192 193 196 198 199 200 203 205 207 209 209 209 212 213 211 208 204 200 200 203 200 196 194 194 193 192 194 194 192 191 191 191 190 191 191 190 191 191 190 190 192 194 195 193 190 189 189 187 189 193 194 195 196 194 196 199 197 188 168 163 162 160 168 168 160 155 161 180 179 178 183 200 222 229 212 205 89 54 41 31 24 22 19
187 190 191 192 194 195 197 198 202 207 209 211 211 210 211 213 213 209 203 199 200 199 195 193 193 194 195 194 195 195 195 195 194 193 193 193 193 192 192 192 191 192 194 195 196 194 192 191 190 188 192 196 195 198 204 200 198 201 201 199 186 176 175 176 173 168 162 157 147 165 181 185 182 187 207 233 240 208 94 48 37 24 17 17 17